Total_Precipitation_Accumulation
1.70 1.47 1.16 0.94 0.38 0.35 0.26 0.28 0.18 0.14 0.68 0.95 1.07 1.56 1.26 0.80 0.68 0.63 0.67 0.60 0.53 0.48 0.42 0.42 0.41 0.45 0.51 0.37 0.40 0.40 0.29 0.24 0.27 0.24 0.23 0.31 0.20 0.25 0.23 0.15 0.19 0.34 0.26 0.31 0.21 0.11 0.28 0.34 0.20 0.39 0.23 0.35 0.31 0.27 0.16 0.05 0.06 0.11 0.11 0.07 0.05 0.02 0.03 0.07 0.14 0.22 0.02 0.02 0.02 0.01 0.01 0.01 0.01 0.01 0.01 0.00 0.00 0.00 0.00 0.00 0.00 0.00 0.00 0.00 0.00
0.83 0.96 0.91 0.90 0.23 0.42 0.56 0.41 0.57 0.27 0.48 1.12 1.70 0.85 0.30 0.37 0.38 0.43 0.43 0.44 0.36 0.42 0.42 0.43 0.30 0.31 0.32 0.31 0.11 0.10 0.17 0.11 0.17 0.23 0.19 0.12 0.30 0.11 0.32 0.10 0.34 0.51 0.10 0.09 0.08 0.20 0.09 0.24 0.45 0.30 0.28 0.13 0.11 0.20 0.24 0.13 0.07 0.05 0.05 0.08 0.06 0.03 0.04 0.01 0.03 0.07 0.04 0.03 0.02 0.01 0.00 0.02 0.00 0.00 0.02 0.00 0.00 0.00 0.00 0.00 0.00 0.00 0.00 0.00 0.00
0.35 0.44 0.48 0.37 0.35 0.50 0.51 0.44 0.32 0.19 0.57 0.56 0.52 0.47 0.53 0.60 0.52 0.49 0.41 0.39 0.34 0.37 0.43 0.36 0.32 0.25 0.29 0.30 0.34 0.17 0.37 0.19 0.08 0.08 0.11 0.15 0.17 0.09 0.10 0.09 0.20 0.16 0.11 0.19 0.29 0.11 0.21 0.15 0.22 0.32 0.36 0.20 0.19 0.13 0.18 0.16 0.13 0.09 0.20 0.08 0.10 0.10 0.01 0.02 0.04 0.05 0.05 0.02 0.01 0.02 0.00 0.00 0.03 0.01 0.02 0.00 0.00 0.00 0.00 0.00 0.00 0.00 0.00 0.00 0.00
0.73 0.81 0.53 0.47 0.72 0.97 0.66 0.53 0.50 0.17 0.55 0.69 0.99 0.43 0.32 0.53 0.57 0.55 0.41 0.46 0.26 0.30 0.40 0.29 0.35 0.35 0.35 0.23 0.22 0.28 0.17 0.15 0.08 0.08 0.04 0.12 0.16 0.09 0.05 0.13 0.32 0.28 0.06 0.12 0.25 0.20 0.17 0.24 0.11 0.17 0.25 0.28 0.32 0.12 0.11 0.12 0.08 0.18 0.05 0.06 0.03 0.03 0.01 0.01 0.01 0.02 0.02 0.01 0.00 0.01 0.02 0.01 0.00 0.01 0.01 0.00 0.00 0.00 0.00 0.00 0.00 0.00 0.00 0.00 0.00
0.32 0.33 1.31 1.53 1.01 0.67 0.67 0.80 0.63 0.60 0.85 1.30 0.78 0.80 0.49 0.50 0.74 0.73 0.47 0.66 0.56 0.36 0.23 0.34 0.41 0.26 0.27 0.16 0.21 0.21 0.21 0.34 0.35 0.21 0.16 0.29 0.26 0.06 0.06 0.05 0.21 0.15 0.27 0.12 0.54 0.24 0.17 0.15 0.24 0.20 0.47 0.14 0.11 0.13 0.05 0.06 0.08 0.04 0.11 0.06 0.09 0.05 0.05 0.02 0.02 0.02 0.03 0.03 0.02 0.02 0.01 0.00 0.02 0.02 0.01 0.01 0.01 0.00 0.00 0.00 0.00 0.00 0.00 0.00 0.00
1.59 2.05 2.80 2.28 1.48 2.42 1.54 1.01 1.33 1.35 1.57 1.11 0.89 0.90 0.77 0.69 0.92 0.91 0.53 0.77 0.47 0.31 0.43 0.29 0.27 0.36 0.37 0.22 0.34 0.27 0.33 0.33 0.53 0.14 0.14 0.35 0.38 0.16 0.17 0.18 0.11 0.19 0.23 0.24 0.20 0.19 0.21 0.13 0.22 0.29 0.37 0.40 0.12 0.04 0.20 0.12 0.02 0.01 0.02 0.04 0.12 0.07 0.05 0.02 0.02 0.02 0.02 0.01 0.01 0.01 0.00 0.03 0.01 0.01 0.01 0.01 0.00 0.00 0.00 0.00 0.00 0.00 0.00 0.00 0.00
2.64 2.63 2.58 2.23 2.51 1.44 1.56 2.34 1.72 2.32 1.90 1.63 1.79 1.15 0.99 1.13 1.25 1.10 0.89 0.74 0.69 0.83 0.72 0.49 0.44 0.39 0.28 0.33 0.44 0.84 0.33 0.31 0.24 0.44 0.28 0.19 0.30 0.08 0.10 0.13 0.06 0.17 0.24 0.43 0.29 0.22 0.28 0.22 0.18 0.20 0.32 0.28 0.14 0.13 0.07 0.06 0.07 0.03 0.06 0.06 0.04 0.03 0.07 0.07 0.03 0.03 0.03 0.03 0.03 0.03 0.01 0.01 0.02 0.01 0.01 0.00 0.00 0.00 0.00 0.00 0.00 0.00 0.00 0.00 0.00
2.91 1.39 1.49 2.01 1.63 2.04 1.87 1.95 1.97 1.87 1.67 1.84 2.03 2.04 1.68 1.43 1.25 1.12 1.07 0.75 0.76 0.81 0.73 0.56 0.50 0.30 0.33 0.90 0.91 0.71 0.56 0.42 0.29 0.20 0.22 0.38 0.30 0.45 0.12 0.14 0.13 0.13 0.25 0.19 0.40 0.47 0.41 0.22 0.34 0.96 0.58 0.31 0.29 0.24 0.37 0.34 0.26 0.09 0.05 0.15 0.13 0.32 0.13 0.05 0.15 0.07 0.02 0.03 0.12 0.07 0.00 0.01 0.01 0.00 0.00 0.00 0.00 0.00 0.00 0.00 0.00 0.00 0.00 0.00 0.00
1.36 1.83 1.65 1.53 1.45 1.80 1.89 1.94 1.61 1.48 1.88 2.28 2.33 2.25 1.95 1.53 1.19 1.06 0.72 0.70 0.98 0.54 0.52 0.62 0.33 0.29 0.28 0.53 0.64 0.58 0.44 0.44 0.50 0.58 0.52 0.47 0.20 0.18 0.48 0.31 0.20 0.20 0.17 0.19 0.14 0.17 0.16 0.16 0.17 0.48 0.47 0.29 0.32 0.39 0.76 0.70 0.41 0.16 0.03 0.04 0.39 0.24 0.12 0.38 0.46 0.24 0.04 0.05 0.44 0.26 0.01 0.00 0.00 0.00 0.00 0.00 0.00 0.00 0.00 0.00 0.00 0.00 0.00 0.00 0.00
1.35 1.75 1.13 0.79 1.00 1.59 1.29 1.32 1.64 1.40 2.60 2.00 1.38 1.56 1.44 1.29 0.90 0.91 1.02 0.80 0.57 0.45 0.38 0.39 0.42 0.44 0.34 0.33 0.92 0.72 0.82 0.40 0.34 0.36 0.35 0.27 0.29 0.26 0.56 0.60 0.20 0.10 0.15 0.11 0.08 0.14 0.13 0.09 0.22 0.19 0.06 0.03 0.13 0.09 0.13 0.11 0.09 0.19 0.38 0.52 0.34 0.24 0.22 0.13 0.15 0.07 0.23 0.14 0.23 0.20 0.09 0.01 0.00 0.00 0.00 0.00 0.00 0.00 0.00 0.00 0.00 0.00 0.00 0.00 0.00
1.56 0.97 1.36 0.94 1.26 1.46 1.82 2.61 1.73 2.80 2.35 1.59 1.41 1.80 1.07 1.13 0.92 0.46 0.52 0.38 0.44 0.50 0.45 0.46 0.32 1.12 0.58 0.49 0.43 0.41 0.23 0.15 0.20 0.21 0.13 0.15 0.15 0.29 0.57 0.52 0.14 0.21 0.25 0.22 0.08 0.17 0.11 0.36 0.74 0.37 0.11 0.07 0.77 0.07 0.12 0.03 0.05 0.02 0.02 0.11 0.29 0.18 0.14 0.16 0.07 1.11 0.42 0.35 2.02 3.11 1.29 0.08 0.00 0.01 0.00 0.00 0.00 0.00 0.00 0.00 0.00 0.00 0.00 0.00 0.00
1.30 1.59 1.26 1.03 1.37 1.81 1.71 2.33 1.50 1.77 1.87 1.73 1.23 1.64 1.45 1.13 1.00 0.90 0.59 0.86 0.97 0.68 0.45 0.26 0.52 0.71 0.68 0.47 0.48 0.49 0.48 0.62 0.21 0.10 0.05 0.03 0.05 0.40 0.48 0.39 0.14 0.26 0.26 0.20 0.19 0.17 0.53 0.77 0.89 0.36 0.20 0.16 0.13 0.94 0.84 0.37 0.08 0.01 0.00 0.01 0.01 0.00 0.02 0.71 0.13 0.13 0.13 0.69 0.59 0.57 1.32 0.46 0.14 0.05 0.02 0.00 0.00 0.00 0.01 0.00 0.00 0.00 0.00 0.00 0.00
1.58 0.91 0.93 1.04 1.46 1.19 1.76 1.64 1.31 1.39 1.28 1.64 1.35 1.19 1.18 0.81 1.27 1.77 1.30 0.74 0.90 0.59 0.80 0.35 0.40 0.78 0.50 0.78 0.66 0.99 1.15 0.70 0.40 0.27 0.21 0.19 0.20 0.32 0.49 0.57 0.39 0.44 0.38 0.33 0.31 0.51 0.40 0.53 0.43 0.52 0.32 0.10 0.08 0.17 0.05 0.04 0.04 0.01 0.00 0.00 0.00 0.00 0.00 0.00 0.00 0.09 0.12 0.30 0.22 1.01 0.18 0.11 0.15 0.31 0.10 0.12 0.02 0.01 0.00 0.00 0.00 0.00 0.00 0.00 0.00
1.04 1.06 0.81 0.96 1.25 1.08 1.14 1.05 1.21 1.66 1.74 1.18 1.27 1.01 1.28 1.15 1.18 1.42 1.40 1.30 0.90 0.76 0.61 0.53 0.62 0.66 0.48 0.28 0.40 0.72 1.24 0.57 0.35 0.18 0.11 0.09 0.09 0.19 0.56 0.58 0.51 0.50 0.46 0.67 0.77 0.86 1.05 0.45 0.39 0.38 0.37 0.19 0.34 0.23 0.30 0.03 0.04 0.14 0.08 0.04 0.10 0.00 0.00 0.00 0.01 0.00 0.01 0.08 0.33 0.09 0.08 0.05 0.09 0.25 0.28 0.22 0.08 0.02 0.06 0.01 0.00 0.00 0.00 0.00 0.01
0.66 0.79 0.91 0.74 1.16 1.19 1.32 0.99 1.11 1.10 1.08 1.18 1.24 1.67 1.35 1.34 1.15 1.22 1.55 1.28 1.02 0.76 0.60 0.51 0.47 0.56 0.53 0.49 0.60 0.71 0.47 0.36 0.15 0.46 0.34 0.30 0.38 0.38 0.64 0.55 0.50 0.45 0.58 1.15 0.50 0.22 0.37 0.26 0.28 0.30 0.28 0.20 0.28 0.14 0.07 0.06 0.02 0.03 0.08 0.08 0.11 0.03 0.24 0.09 0.06 0.08 0.02 0.15 0.16 0.04 0.05 0.07 0.07 0.19 0.02 0.08 0.29 0.11 0.02 0.03 0.03 0.02 0.01 0.00 0.00
0.69 0.70 0.61 0.90 0.66 1.00 0.96 0.97 0.98 1.11 1.16 1.13 1.40 1.24 1.19 0.98 0.88 0.69 0.60 0.54 0.50 0.51 0.41 0.51 0.42 0.35 0.37 0.27 0.27 1.17 1.20 0.51 0.35 0.23 0.18 0.33 0.47 0.40 0.40 0.54 0.60 0.50 1.16 0.65 0.55 0.32 0.34 0.44 0.44 0.22 0.23 0.15 0.09 0.06 0.18 0.05 0.13 0.09 0.03 0.09 0.04 0.02 0.01 0.01 0.00 0.01 0.26 0.22 0.32 0.37 0.02 0.23 0.03 0.03 0.16 0.04 0.04 0.03 0.02 0.03 0.03 0.04 0.03 0.02 0.02
1.41 0.87 0.85 0.62 0.62 0.86 1.20 0.83 0.92 0.93 0.99 1.13 1.26 1.26 1.19 1.13 1.03 0.98 0.97 0.66 0.50 0.83 0.34 0.34 0.18 0.53 0.26 0.26 0.23 0.32 0.24 0.19 0.08 0.22 0.12 0.11 0.26 0.25 0.16 0.28 0.37 0.60 0.50 0.27 0.90 1.00 0.33 0.40 0.66 0.37 0.43 0.23 0.02 0.05 0.07 0.09 0.72 0.68 0.37 0.26 0.09 0.01 0.03 0.02 0.01 0.00 0.00 0.00 0.00 0.00 0.01 0.01 0.01 0.01 0.00 0.02 0.39 0.04 0.04 0.08 0.02 0.08 0.45 0.12 0.06
1.13 1.16 1.36 1.00 0.89 0.74 0.96 0.92 0.77 1.00 1.09 0.88 1.27 1.17 1.25 1.33 1.24 1.38 1.33 1.02 0.81 0.70 0.91 0.38 0.39 0.38 0.63 0.47 0.25 0.45 0.71 0.59 0.12 0.14 0.14 0.16 0.19 0.20 0.55 0.32 0.27 0.24 0.35 0.34 0.31 0.28 0.57 0.08 0.06 0.60 0.32 0.15 0.05 0.01 0.02 0.12 0.38 0.26 0.10 0.03 0.13 0.21 0.13 0.05 0.75 0.38 0.18 0.11 0.11 0.11 0.30 0.04 0.01 0.01 0.10 0.25 0.41 0.31 0.33 0.48 0.34 0.15 0.18 0.17 0.19
1.34 1.34 1.00 1.13 1.26 1.19 1.10 1.24 1.04 0.83 1.00 1.03 0.95 1.23 1.21 1.14 1.46 1.33 1.34 1.19 1.01 0.93 0.89 0.68 0.69 0.46 0.55 0.59 0.40 0.30 0.33 0.28 0.17 0.25 0.31 0.47 0.56 0.65 0.78 0.67 0.27 0.49 0.51 0.25 0.12 0.11 0.32 0.17 0.03 0.08 0.34 0.12 0.24 0.04 0.02 0.32 0.44 0.15 0.33 0.21 0.52 0.24 0.10 0.18 0.28 0.58 0.86 0.79 0.79 0.54 0.49 0.31 0.67 0.11 0.20 0.07 0.04 0.06 0.17 0.25 0.09 0.08 0.06 0.08 0.18
0.52 0.77 1.09 0.97 1.08 1.10 1.39 1.33 1.36 1.24 1.03 1.07 1.09 0.96 1.19 1.32 1.29 1.38 1.48 1.40 1.41 1.13 0.85 0.87 0.79 0.63 0.49 0.55 0.59 0.55 0.45 0.31 0.23 0.25 0.30 0.36 0.38 0.50 0.33 0.36 0.90 0.41 0.53 0.22 0.13 0.25 0.15 0.12 0.36 0.13 0.09 0.03 0.40 0.50 0.21 0.04 0.12 0.13 0.08 0.23 0.63 0.31 0.07 0.40 0.69 0.50 0.39 0.40 0.25 0.09 0.07 0.01 0.02 0.10 0.09 0.02 0.13 0.15 0.04 0.02 0.11 0.33 0.24 0.13 0.23
0.18 0.23 0.31 0.72 0.99 1.08 1.06 1.20 1.45 1.58 1.40 1.28 1.24 1.05 1.15 1.23 1.22 1.22 1.48 1.34 1.42 1.31 1.24 1.12 0.96 0.80 0.75 0.65 0.68 0.68 0.65 0.48 0.47 0.35 0.27 0.44 0.46 0.36 0.44 0.49 0.48 0.41 0.35 0.24 0.21 0.27 0.26 0.16 0.19 0.15 0.08 0.15 0.28 0.07 0.09 0.17 0.38 0.72 0.10 0.09 0.20 0.59 1.06 0.88 0.40 0.14 0.33 0.36 0.22 0.21 0.07 0.16 0.14 0.09 0.16 0.04 0.16 0.04 0.12 0.03 0.19 0.28 0.43 0.40 0.35
0.06 0.09 0.10 0.15 0.24 0.70 0.90 1.06 1.11 1.27 1.29 1.22 1.25 1.03 1.04 1.28 1.35 1.24 1.28 1.28 1.39 1.46 1.40 1.41 1.31 1.12 1.12 1.08 0.97 1.02 0.85 0.77 0.74 0.68 0.56 0.40 0.37 0.64 1.01 0.76 0.62 0.64 0.57 0.49 0.37 0.24 0.25 0.24 0.30 0.24 0.17 0.18 0.21 0.43 0.17 0.04 0.29 1.23 0.13 0.31 0.77 0.18 0.44 0.18 0.20 0.09 0.07 0.24 0.12 0.08 0.11 0.12 0.08 0.04 0.20 0.21 0.10 0.21 0.10 0.17 0.11 0.16 0.34 0.24 0.25
0.04 0.04 0.06 0.07 0.11 0.14 0.24 0.54 0.94 1.18 1.35 1.21 1.17 1.23 1.09 1.10 1.14 1.20 1.29 1.31 1.20 1.30 1.35 1.37 1.44 1.38 1.29 1.22 1.27 1.17 1.26 1.24 1.15 1.13 0.95 0.86 0.69 0.65 0.64 0.68 0.69 0.71 0.71 0.74 0.55 0.50 0.42 0.48 0.34 0.29 0.67 0.83 0.63 0.52 0.43 0.34 0.56 0.67 0.65 0.54 0.25 0.37 0.49 0.17 0.17 0.13 0.04 0.04 0.06 0.11 0.06 0.08 0.06 0.09 0.23 0.36 0.29 0.21 0.40 0.25 0.16 0.14 0.12 0.07 0.06
0.14 0.09 0.07 0.06 0.04 0.06 0.07 0.12 0.21 0.35 0.68 1.14 1.33 1.21 1.09 0.97 1.00 0.94 0.92 1.07 1.19 1.17 1.20 1.25 1.23 1.35 1.40 1.33 1.33 1.31 1.31 1.27 1.19 1.19 1.23 1.18 1.10 1.18 1.21 1.16 1.02 0.99 1.04 0.91 0.61 0.59 0.65 0.77 0.41 0.34 0.41 0.48 0.33 0.29 0.33 0.16 0.13 0.06 0.05 0.08 0.14 0.12 0.23 0.23 0.12 0.07 0.07 0.03 0.04 0.04 0.03 0.03 0.08 0.10 0.17 0.09 0.09 0.13 0.10 0.10 0.06 0.05 0.04 0.03 0.04
0.12 0.19 0.17 0.12 0.09 0.05 0.04 0.13 0.11 0.23 0.17 0.23 0.48 0.90 1.13 1.16 0.98 0.96 0.85 0.88 0.91 0.95 0.94 0.98 0.99 1.23 1.27 1.31 1.24 1.25 1.22 1.37 1.39 1.49 1.18 1.28 1.35 1.33 1.36 1.27 1.47 1.14 0.99 0.68 0.64 0.81 0.52 0.40 0.31 0.37 0.37 0.36 0.40 0.35 0.31 0.20 0.23 0.30 0.26 0.27 0.13 0.35 0.17 0.29 0.24 0.18 0.13 0.12 0.16 0.10 0.11 0.18 0.13 0.12 0.25 0.20 0.26 0.16 0.09 0.07 0.04 0.03 0.11 0.18 0.15
0.10 0.12 0.13 0.13 0.14 0.14 0.10 0.07 0.11 0.15 0.11 0.30 0.18 0.23 0.43 0.70 1.03 1.29 1.02 0.97 1.00 1.00 0.98 0.91 0.90 0.93 1.03 1.16 1.23 1.17 1.20 0.96 1.00 1.16 1.43 1.48 1.52 1.35 1.30 1.24 1.24 1.03 1.21 1.30 1.00 0.84 1.00 0.86 0.58 0.43 0.45 0.45 0.41 0.40 0.39 0.29 0.24 0.18 0.13 0.21 0.33 0.24 0.21 0.21 0.26 0.19 0.23 0.19 0.22 0.23 0.17 0.19 0.20 0.18 0.15 0.13 0.14 0.08 0.05 0.07 0.05 0.12 0.17 0.25 0.16
0.10 0.12 0.11 0.09 0.08 0.09 0.13 0.13 0.10 0.14 0.26 0.18 0.21 0.16 0.21 0.36 0.40 0.54 1.03 0.95 1.34 0.83 1.08 1.10 1.06 1.21 1.10 1.01 1.30 1.59 1.49 1.07 0.91 0.95 0.93 0.94 1.24 1.65 1.70 1.67 1.56 1.20 1.05 1.07 1.02 0.78 0.65 0.62 0.56 0.54 0.47 0.51 0.57 0.63 0.68 0.39 0.50 0.55 0.32 0.28 0.28 0.26 0.25 0.28 0.24 0.19 0.20 0.22 0.22 0.18 0.29 0.23 0.17 0.21 0.22 0.11 0.08 0.07 0.06 0.08 0.08 0.12 0.05 0.04 0.07
0.03 0.05 0.05 0.05 0.06 0.07 0.09 0.10 0.13 0.13 0.11 0.12 0.17 0.17 0.31 0.24 0.30 0.26 0.31 0.43 0.58 1.03 0.86 0.76 0.75 0.65 0.73 0.74 0.93 0.95 1.05 1.13 1.03 0.97 0.98 0.97 0.90 0.90 0.92 1.19 1.17 1.22 1.05 0.93 0.96 1.20 0.95 0.66 0.61 0.59 0.51 0.50 0.47 0.49 0.53 0.53 0.48 0.33 0.26 0.29 0.43 0.45 0.37 0.40 0.44 0.41 0.32 0.31 0.33 0.32 0.30 0.31 0.19 0.19 0.22 0.30 0.13 0.20 0.18 0.23 0.20 0.20 0.22 0.11 0.22
0.01 0.01 0.02 0.02 0.04 0.04 0.04 0.05 0.07 0.08 0.11 0.09 0.08 0.14 0.25 0.16 0.19 0.22 0.34 0.36 0.46 0.73 0.85 0.73 0.97 1.23 0.72 0.94 0.75 0.64 0.71 0.96 1.04 0.90 1.25 1.27 1.34 1.02 1.26 1.17 1.24 1.16 1.27 1.10 1.06 0.97 0.87 0.85 0.77 0.73 0.69 0.63 0.55 0.54 0.48 0.45 0.44 0.45 0.41 0.30 0.26 0.30 0.29 0.25 0.27 0.18 0.21 0.20 0.14 0.12 0.07 0.13 0.10 0.12 0.14 0.10 0.10 0.14 0.06 0.04 0.06 0.09 0.06 0.05 0.08
0.03 0.03 0.04 0.02 0.02 0.02 0.03 0.03 0.08 0.22 0.08 0.06 0.08 0.05 0.04 0.06 0.11 0.09 0.30 0.18 0.19 0.23 0.19 0.37 0.29 0.43 0.53 0.61 0.56 0.69 0.63 0.68 0.70 0.69 0.68 0.71 0.85 0.99 0.98 1.06 1.09 0.98 0.84 0.83 1.11 1.04 1.05 0.97 0.88 0.75 0.66 0.60 0.58 0.53 0.51 0.52 0.47 0.44 0.40 0.39 0.36 0.28 0.29 0.27 0.27 0.26 0.10 0.07 0.06 0.05 0.07 0.07 0.06 0.06 0.07 0.08 0.05 0.07 0.06 0.07 0.04 0.04 0.08 0.06 0.06
0.01 0.01 0.01 0.03 0.03 0.03 0.03 0.02 0.03 0.03 0.05 0.05 0.05 0.07 0.10 0.05 0.03 0.03 0.07 0.08 0.10 0.10 0.12 0.23 0.29 0.17 0.32 0.34 0.36 0.25 0.36 0.36 0.49 0.73 0.70 0.66 0.75 0.76 0.80 0.72 0.97 0.88 0.81 1.13 0.92 0.73 0.64 0.76 0.98 0.60 0.64 0.53 0.49 0.43 0.38 0.35 0.39 0.39 0.41 0.38 0.36 0.32 0.25 0.23 0.22 0.20 0.17 0.12 0.06 0.11 0.05 0.08 0.06 0.04 0.05 0.05 0.03 0.06 0.04 0.05 0.13 0.05 0.10 0.20 0.07
0.01 0.01 0.01 0.01 0.02 0.01 0.04 0.07 0.14 0.05 0.02 0.02 0.03 0.03 0.08 0.21 0.13 0.13 0.10 0.05 0.05 0.06 0.08 0.07 0.09 0.12 0.11 0.15 0.31 0.36 0.66 0.42 0.28 0.38 0.29 0.36 0.47 0.48 0.47 0.61 0.56 0.46 0.61 0.75 0.74 0.63 0.64 0.56 0.53 0.53 0.55 0.43 0.41 0.36 0.36 0.40 0.40 0.39 0.22 0.24 0.24 0.23 0.21 0.22 0.25 0.22 0.22 0.13 0.06 0.07 0.06 0.05 0.07 0.05 0.04 0.04 0.04 0.05 0.03 0.02 0.04 0.05 0.06 0.06 0.06
0.02 0.02 0.05 0.01 0.01 0.01 0.05 0.15 0.17 0.04 0.12 0.07 0.28 0.03 0.08 0.04 0.23 0.38 0.64 0.30 0.13 0.13 0.04 0.04 0.05 0.06 0.12 0.12 0.09 0.09 0.17 0.33 0.47 0.58 0.46 0.32 0.31 0.49 0.53 0.36 0.52 0.74 0.45 0.38 0.66 0.67 0.50 0.51 0.47 0.50 0.38 0.43 0.35 0.38 0.30 0.33 0.29 0.35 0.44 0.37 0.28 0.17 0.13 0.15 0.12 0.13 0.15 0.25 0.12 0.15 0.11 0.09 0.05 0.05 0.06 0.07 0.11 0.15 0.14 0.08 0.09 0.10 0.08 0.10 0.07
0.04 0.08 0.07 0.05 0.03 0.03 0.03 0.05 0.09 0.06 0.03 0.24 0.12 0.07 0.05 0.06 0.14 0.17 0.22 0.54 0.58 0.11 0.26 0.10 0.06 0.04 0.03 0.05 0.09 0.09 0.11 0.18 0.17 0.12 0.20 0.20 0.30 0.40 0.37 0.49 0.32 0.37 0.34 0.30 0.30 0.34 0.46 0.37 0.43 0.30 0.27 0.22 0.24 0.22 0.27 0.32 0.21 0.22 0.31 0.41 0.49 0.32 0.26 0.24 0.19 0.15 0.11 0.16 0.20 0.21 0.23 0.21 0.19 0.14 0.11 0.14 0.10 0.12 0.13 0.14 0.15 0.20 0.15 0.11 0.10
0.06 0.05 0.04 0.10 0.09 0.08 0.05 0.13 0.40 0.09 0.05 0.04 0.06 0.12 0.08 0.07 0.09 0.09 0.12 0.09 0.12 0.22 0.36 0.57 0.77 0.63 0.94 0.67 0.26 0.20 0.13 0.08 0.17 0.16 0.18 0.19 0.22 0.20 0.26 0.41 0.46 0.40 0.44 0.37 0.34 0.27 0.31 0.35 0.56 0.44 0.28 0.24 0.24 0.22 0.23 0.20 0.30 0.29 0.35 0.37 0.33 0.37 0.31 0.33 0.38 0.31 0.19 0.12 0.11 0.13 0.18 0.19 0.28 0.30 0.26 0.25 0.21 0.17 0.14 0.13 0.13 0.15 0.16 0.13 0.13
0.11 0.14 0.08 0.12 0.18 0.15 0.16 0.25 0.21 0.15 0.11 0.15 0.05 0.09 0.13 0.07 0.04 0.09 0.15 0.20 0.17 0.08 0.07 0.04 0.08 0.14 0.22 0.39 0.32 0.38 0.28 0.30 0.54 0.64 0.43 0.13 0.18 0.23 0.19 0.16 0.28 0.34 0.28 0.24 0.27 0.34 0.28 0.31 0.33 0.39 0.46 0.29 0.21 0.24 0.20 0.24 0.18 0.16 0.20 0.32 0.25 0.37 0.33 0.41 0.24 0.27 0.27 0.27 0.20 0.15 0.14 0.16 0.15 0.19 0.25 0.28 0.25 0.29 0.23 0.25 0.21 0.26 0.27 0.20 0.23
0.18 0.21 0.22 0.18 0.24 0.29 0.23 0.20 0.15 0.17 0.17 0.24 0.22 0.07 0.05 0.05 0.05 0.06 0.11 0.08 0.07 0.15 0.23 0.13 0.07 0.05 0.07 0.08 0.15 0.34 0.38 0.33 0.46 0.16 0.28 0.38 0.30 0.40 0.42 0.20 0.32 0.32 0.28 0.32 0.34 0.30 0.41 0.35 0.28 0.33 0.33 0.28 0.24 0.32 0.19 0.47 0.24 0.18 0.18 0.15 0.13 0.17 0.23 0.28 0.28 0.30 0.24 0.27 0.26 0.29 0.26 0.23 0.22 0.24 0.28 0.31 0.23 0.25 0.26 0.21 0.22 0.20 0.20 0.18 0.21
0.19 0.23 0.24 0.33 0.31 0.26 0.34 0.23 0.28 0.13 0.07 0.08 0.08 0.11 0.12 0.08 0.09 0.03 0.07 0.05 0.10 0.18 0.33 0.13 0.12 0.23 0.08 0.10 0.11 0.23 0.38 0.22 0.26 0.28 0.23 0.11 0.42 0.33 0.22 0.44 0.44 0.56 0.31 0.23 0.33 0.31 0.38 0.36 0.36 0.34 0.36 0.30 0.26 0.20 0.19 0.30 0.26 0.26 0.23 0.23 0.18 0.13 0.12 0.14 0.17 0.24 0.28 0.41 0.34 0.30 0.36 0.37 0.34 0.35 0.35 0.34 0.26 0.20 0.17 0.16 0.19 0.19 0.15 0.13 0.17
0.25 0.25 0.26 0.25 0.22 0.24 0.22 0.29 0.24 0.16 0.16 0.19 0.16 0.12 0.10 0.08 0.06 0.09 0.18 0.13 0.10 0.06 0.16 0.19 0.29 0.23 0.17 0.11 0.08 0.34 0.13 0.31 0.35 0.39 0.52 0.73 0.60 0.47 0.18 0.42 0.33 0.47 0.41 0.47 0.43 0.22 0.20 0.16 0.26 0.29 0.22 0.25 0.32 0.36 0.23 0.29 0.25 0.23 0.24 0.25 0.26 0.22 0.19 0.18 0.18 0.21 0.28 0.38 0.46 0.41 0.39 0.38 0.36 0.34 0.31 0.28 0.24 0.18 0.18 0.18 0.19 0.19 0.19 0.15 0.12
0.37 0.45 0.37 0.30 0.24 0.19 0.16 0.15 0.14 0.18 0.31 0.16 0.13 0.09 0.10 0.09 0.08 0.09 0.13 0.04 0.16 0.23 0.28 0.19 0.17 0.10 0.19 0.32 0.16 0.12 0.11 0.20 0.37 0.35 0.22 0.22 0.40 0.75 0.92 0.93 0.94 0.57 0.78 0.55 0.37 0.30 0.28 0.28 0.21 0.25 0.25 0.19 0.23 0.26 0.28 0.25 0.26 0.26 0.26 0.26 0.35 0.30 0.32 0.34 0.36 0.36 0.35 0.31 0.27 0.26 0.29 0.32 0.28 0.27 0.24 0.19 0.15 0.16 0.16 0.15 0.14 0.14 0.15 0.15 0.12
0.45 0.43 0.34 0.26 0.23 0.21 0.19 0.20 0.19 0.18 0.17 0.35 0.49 0.24 0.13 0.09 0.10 0.14 0.18 0.26 0.45 0.41 0.15 0.30 0.42 0.34 0.28 0.26 0.19 0.28 0.40 0.30 0.23 0.21 0.22 0.53 0.18 0.65 0.61 0.21 0.22 0.30 0.34 0.23 0.31 0.44 0.37 0.17 0.11 0.13 0.18 0.25 0.30 0.30 0.40 0.42 0.35 0.34 0.33 0.33 0.36 0.39 0.40 0.42 0.41 0.41 0.37 0.28 0.26 0.28 0.29 0.28 0.27 0.25 0.23 0.17 0.16 0.17 0.15 0.15 0.16 0.16 0.15 0.14 0.15
0.50 0.41 0.35 0.32 0.26 0.23 0.22 0.23 0.22 0.16 0.18 0.17 0.20 0.57 0.43 0.32 0.20 0.25 0.30 0.36 0.25 0.69 0.82 0.86 0.72 0.78 0.66 0.16 0.13 0.23 0.67 0.79 0.75 0.44 0.41 0.45 0.35 0.20 0.50 0.20 0.14 0.14 0.20 0.14 0.15 0.16 0.21 0.18 0.17 0.16 0.16 0.22 0.39 0.48 0.46 0.47 0.50 0.52 0.54 0.49 0.43 0.41 0.40 0.38 0.35 0.35 0.36 0.37 0.30 0.26 0.24 0.22 0.21 0.20 0.20 0.16 0.16 0.14 0.14 0.15 0.15 0.16 0.14 0.13 0.13
0.36 0.34 0.34 0.30 0.24 0.23 0.24 0.26 0.21 0.21 0.21 0.18 0.26 0.28 0.45 0.94 0.56 0.24 0.26 0.50 0.45 0.42 0.44 0.49 0.56 0.37 0.48 0.39 0.48 0.42 0.35 0.70 0.36 0.43 0.37 0.30 0.24 0.15 0.16 0.20 0.19 0.16 0.13 0.09 0.06 0.05 0.07 0.11 0.13 0.19 0.21 0.33 0.53 0.67 0.74 0.67 0.56 0.52 0.50 0.46 0.38 0.32 0.30 0.30 0.31 0.32 0.32 0.29 0.25 0.23 0.26 0.25 0.21 0.18 0.15 0.13 0.14 0.14 0.13 0.14 0.13 0.13 0.11 0.13 0.15
0.23 0.25 0.25 0.24 0.23 0.23 0.27 0.25 0.26 0.22 0.19 0.15 0.22 0.25 0.25 0.15 0.58 0.76 0.68 0.34 0.41 0.65 0.85 0.36 0.40 0.16 0.18 0.18 0.40 0.55 0.36 0.18 0.55 0.42 0.45 0.27 0.18 0.13 0.10 0.12 0.17 0.14 0.12 0.08 0.06 0.03 0.04 0.09 0.13 0.18 0.24 0.41 0.47 0.47 0.45 0.40 0.36 0.34 0.34 0.35 0.33 0.29 0.32 0.36 0.38 0.39 0.37 0.30 0.24 0.22 0.20 0.17 0.15 0.15 0.14 0.12 0.13 0.15 0.14 0.13 0.13 0.11 0.10 0.11 0.12
0.19 0.21 0.23 0.23 0.22 0.25 0.26 0.19 0.18 0.20 0.20 0.23 0.29 0.24 0.19 0.12 0.22 0.51 0.18 0.36 0.19 0.20 0.23 0.37 0.52 0.21 0.09 0.41 0.12 0.20 0.32 0.28 0.13 0.42 0.37 0.59 0.36 0.12 0.09 0.09 0.11 0.13 0.10 0.05 0.04 0.02 0.05 0.04 0.07 0.11 0.11 0.18 0.25 0.30 0.30 0.27 0.25 0.25 0.26 0.29 0.36 0.38 0.39 0.41 0.41 0.34 0.28 0.24 0.20 0.18 0.20 0.16 0.14 0.13 0.13 0.11 0.11 0.14 0.14 0.13 0.14 0.11 0.11 0.11 0.10
0.11 0.30 0.17 0.19 0.19 0.17 0.17 0.18 0.12 0.14 0.18 0.30 0.29 0.25 0.15 0.12 0.16 0.23 0.16 0.13 0.18 0.11 0.09 0.15 0.38 0.20 0.20 0.12 0.12 0.11 0.08 0.09 0.18 0.24 0.31 0.43 0.32 0.27 0.24 0.06 0.07 0.07 0.08 0.12 0.08 0.16 0.15 0.08 0.08 0.09 0.09 0.10 0.11 0.14 0.14 0.13 0.15 0.15 0.18 0.21 0.26 0.32 0.32 0.32 0.29 0.26 0.21 0.19 0.16 0.15 0.17 0.14 0.12 0.12 0.12 0.10 0.09 0.10 0.10 0.10 0.11 0.10 0.09 0.10 0.13
0.12 0.14 0.12 0.10 0.11 0.11 0.10 0.10 0.12 0.14 0.15 0.13 0.11 0.10 0.09 0.09 0.10 0.12 0.25 0.12 0.08 0.06 0.05 0.09 0.30 0.12 0.20 0.10 0.05 0.04 0.05 0.04 0.05 0.08 0.10 0.13 0.24 0.28 0.22 0.10 0.09 0.07 0.09 0.10 0.09 0.10 0.09 0.10 0.09 0.07 0.07 0.08 0.11 0.08 0.04 0.05 0.06 0.08 0.09 0.12 0.17 0.22 0.24 0.21 0.18 0.19 0.16 0.12 0.10 0.11 0.10 0.12 0.14 0.13 0.10 0.07 0.07 0.06 0.07 0.08 0.09 0.10 0.09 0.10 0.15
0.12 0.13 0.28 0.57 0.18 0.18 0.19 0.19 0.20 0.14 0.12 0.10 0.09 0.08 0.07 0.07 0.08 0.09 0.09 0.10 0.08 0.06 0.05 0.06 0.11 0.08 0.06 0.06 0.05 0.04 0.05 0.04 0.04 0.03 0.04 0.07 0.13 0.20 0.24 0.22 0.16 0.18 0.18 0.10 0.10 0.10 0.12 0.16 0.18 0.20 0.20 0.18 0.09 0.03 0.03 0.04 0.04 0.04 0.05 0.08 0.13 0.15 0.12 0.11 0.09 0.08 0.08 0.07 0.07 0.08 0.09 0.09 0.12 0.13 0.11 0.08 0.06 0.08 0.07 0.07 0.06 0.05 0.06 0.07 0.12
0.12 0.14 0.43 0.49 0.25 0.18 0.17 0.16 0.15 0.15 0.12 0.10 0.10 0.10 0.09 0.09 0.09 0.09 0.09 0.08 0.05 0.04 0.05 0.07 0.11 0.12 0.07 0.05 0.04 0.05 0.05 0.04 0.04 0.05 0.05 0.06 0.07 0.14 0.23 0.28 0.26 0.22 0.17 0.17 0.17 0.18 0.19 0.19 0.17 0.15 0.11 0.05 0.03 0.02 0.01 0.02 0.02 0.03 0.06 0.08 0.09 0.07 0.06 0.07 0.06 0.06 0.06 0.05 0.06 0.06 0.08 0.08 0.08 0.09 0.10 0.08 0.05 0.06 0.08 0.07 0.07 0.09 0.09 0.08 0.10
0.03 0.08 0.08 0.09 0.12 0.14 0.15 0.15 0.15 0.15 0.13 0.11 0.09 0.08 0.07 0.06 0.07 0.08 0.07 0.07 0.06 0.04 0.04 0.05 0.08 0.08 0.06 0.05 0.04 0.05 0.05 0.04 0.04 0.04 0.04 0.07 0.09 0.17 0.26 0.31 0.29 0.22 0.20 0.20 0.20 0.19 0.16 0.13 0.09 0.05 0.02 0.01 0.01 0.01 0.01 0.01 0.02 0.02 0.03 0.04 0.05 0.05 0.04 0.03 0.03 0.03 0.03 0.04 0.05 0.06 0.08 0.09 0.12 0.11 0.09 0.08 0.07 0.05 0.07 0.11 0.13 0.14 0.14 0.13 0.13
0.01 0.02 0.02 0.02 0.03 0.04 0.05 0.06 0.08 0.09 0.09 0.08 0.07 0.06 0.06 0.06 0.07 0.08 0.09 0.06 0.06 0.05 0.04 0.05 0.06 0.09 0.08 0.08 0.05 0.06 0.07 0.07 0.07 0.08 0.10 0.12 0.12 0.16 0.22 0.28 0.25 0.16 0.13 0.11 0.09 0.07 0.07 0.07 0.07 0.04 0.01 0.00 0.00 0.01 0.01 0.01 0.01 0.01 0.01 0.02 0.03 0.04 0.03 0.02 0.02 0.02 0.02 0.03 0.04 0.05 0.05 0.05 0.08 0.09 0.10 0.10 0.10 0.09 0.09 0.09 0.09 0.10 0.13 0.15 0.21